Regional Weather Roundup
Issued by NWS

Home | Current Version | Previous Version | Graphics & Text | Print | Product List | Glossary On
Versions: 1 2 3 4 5 6 7 8 9 10 11 12 13 14 15 16 17 18 19 20 21 22 23 24 25 26 27 28 29 30 31 32 33 34 35 36 37 38 39 40 41 42 43 44 45 46 47 48 49 50
000
ASUS43 KIND 300459
RWRIN

WEATHER ROUNDUP FOR INDIANA
NATIONAL WEATHER SERVICE INDIANAPOLIS IN
100 AM EDT SAT JUL 30 2016

NOTE: "FAIR" INDICATES FEW OR NO CLOUDS BELOW 12,000 FEET WITH NO
SIGNIFICANT WEATHER AND/OR OBSTRUCTIONS TO VISIBILITY.

* - STATION DOES NOT REPORT WEATHER SUCH AS PRECIPITATION OR FOG.

+ - STATION NOT QUALITY CONTROLLED BY THE NATIONAL WEATHER SERVICE.
    USE DATA WITH CAUTION...ESPECIALLY DEWPOINT AND RELATIVE
    HUMIDITY OBSERVATIONS.

INZ001>003-010>013-019-020-300600-
NORTHWEST INDIANA

CITY           SKY/WX    TMP DP  RH WIND       PRES   REMARKS
KNOX *+        MOCLDY    66  64  94 CALM      29.94R VSB 3/4
MONTICELLO +   CLOUDY    69  65  88 E5        29.92S
RENSSELAER +   MOCLDY    68  68 100 E5        29.93R FOG

$$

LMZ046-743>745-300600-
SOUTHERN LAKE MICHIGAN

STATION/POSITION TIME  TEMP    WIND        PRES    WAVE
                       AIR SEA DIR/SP/G            HT
                 (UTC) (F)     (DEG/KT/KT) (MB)    (FT)
BURNS HARBOR     0404   71      80/ 10/ 12 1014.2R
MICHIGAN CITY    0400   70      50/  8/  8   N/A
5NW MICH CITY    0400   74 76   50/ 14/ 17   N/A     3

$$

INZ004-005-014>016-021>024-300600-
NORTH CENTRAL INDIANA

CITY           SKY/WX    TMP DP  RH WIND       PRES   REMARKS
GOSHEN         MOCLDY    68  63  84 CALM      29.95S
SOUTH BEND     CLOUDY    69  66  90 E10       29.95R
WARSAW +       PTCLDY    66  66 100 N3        29.95R

$$

INZ006>009-017-018-025>027-300600-
NORTHEAST INDIANA

CITY           SKY/WX    TMP DP  RH WIND       PRES   REMARKS
ANGOLA *+      PTCLDY    68  61  77 E8        29.95F
FORT WAYNE     CLOUDY    69  68  96 E7        29.93F FOG

$$

INZ028-029-035-036-043>045-051>053-300600-
WEST CENTRAL INDIANA

CITY           SKY/WX    TMP DP  RH WIND       PRES   REMARKS
CRAWFORDSVL +  MOCLDY    65  65 100 CALM      29.91F FOG
GREENCASTLE +  CLEAR     68  68 100 CALM      29.92F
LAFAYETTE      CLEAR     69  68  96 CALM      29.91S
TERRE HAUTE    CLEAR     69  67  93 CALM      29.91F

$$

INZ030>032-037>040-046>048-054>057-064-065-300600-
CENTRAL INDIANA

CITY           SKY/WX    TMP DP  RH WIND       PRES   REMARKS
INDIANAPOLIS   PTCLDY    72  68  87 E6        29.92F
-EAGLE CREEK   CLEAR     72  68  87 CALM      29.92S
KOKOMO *+      CLOUDY    68  64  88 CALM      29.93S
SHELBYVILLE    CLEAR     69  65  86 CALM      29.91F
ZIONSVILLE +   FOG       65  64  99 CALM      29.93S VSB 1

$$

INZ033-034-041-042-049-050-058-059-300600-
EAST CENTRAL INDIANA

CITY           SKY/WX    TMP DP  RH WIND       PRES   REMARKS
MUNCIE         CLEAR     68  66  93 CALM      29.93F FOG

$$

INZ060-061-067>069-081>083-085>088-300600-
SOUTHWEST INDIANA

CITY           SKY/WX    TMP DP  RH WIND       PRES   REMARKS
EVANSVILLE     PTCLDY    73  71  93 CALM      29.92F
HUNTINGBURG *+ PTCLDY    73  70  88 CALM      29.92F
WASHINGTON +   CLEAR     70  70 100 MISG      29.92S

$$

INZ062-063-066-070>080-084-089>092-300600-
SOUTH CENTRAL AND SOUTHEAST INDIANA

CITY           SKY/WX    TMP DP  RH WIND       PRES   REMARKS
BLOOMINGTON    CLEAR     71  68  90 CALM      29.93F
MADISON *+     PTCLDY    72  68  88 CALM      29.95S
SEYMOUR +      PTCLDY    72  72 100 CALM      29.92F FOG

$$




USA.gov is the U.S. government's official web portal to all federal, state and local government web resources and services.